�������l�o���
Date,Time,MP-1(��Sv/h),MP-2(��Sv/h),MP-3(��Sv/h),MP-4(��Sv/h),MP-5(��Sv/h),MP-6(��Sv/h),MP-7(��Sv/h),����,����(m/s),���J
2020/02/07,00:00,0.182,0.164,0.277,0.258,0.255,0.140,0.086,��,4.9,��
2020/02/07,00:10,0.182,0.164,0.276,0.258,0.254,0.140,0.086,��,4.4,��
2020/02/07,00:20,0.182,0.163,0.277,0.257,0.254,0.140,0.086,��,4.7,��
2020/02/07,00:30,0.182,0.163,0.277,0.256,0.254,0.141,0.086,��,4.4,��
2020/02/07,00:40,0.182,0.163,0.277,0.258,0.253,0.140,0.086,��,7.4,��
2020/02/07,00:50,0.182,0.163,0.277,0.258,0.254,0.139,0.086,��,6.7,��
2020/02/07,01:00,0.182,0.163,0.277,0.257,0.253,0.140,0.087,��,5.1,��
2020/02/07,01:10,0.181,0.163,0.276,0.257,0.254,0.140,0.087,��,6.4,��
2020/02/07,01:20,0.182,0.164,0.277,0.258,0.254,0.140,0.086,��,5.4,��
2020/02/07,01:30,0.182,0.162,0.278,0.257,0.254,0.139,0.086,���k��,5.1,��
2020/02/07,01:40,0.182,0.163,0.277,0.257,0.253,0.140,0.086,��,5.6,��
2020/02/07,01:50,0.182,0.162,0.276,0.257,0.254,0.140,0.086,���k��,5.1,��
2020/02/07,02:00,0.182,0.163,0.276,0.256,0.252,0.139,0.086,��,5.3,��
2020/02/07,02:10,0.181,0.163,0.276,0.255,0.254,0.139,0.086,��,5.6,��
2020/02/07,02:20,0.182,0.163,0.278,0.256,0.254,0.140,0.086,��,5.8,��
2020/02/07,02:30,0.182,0.163,0.276,0.257,0.256,0.139,0.085,��,5.3,��
2020/02/07,02:40,0.181,0.163,0.277,0.257,0.256,0.139,0.086,��,6.4,��
2020/02/07,02:50,0.182,0.163,0.276,0.257,0.253,0.139,0.086,���k��,6.5,��
2020/02/07,03:00,0.182,0.163,0.277,0.256,0.252,0.140,0.086,���k��,5.0,��
2020/02/07,03:10,0.182,0.163,0.276,0.257,0.253,0.139,0.085,���k��,3.2,��
2020/02/07,03:20,0.181,0.162,0.277,0.255,0.253,0.140,0.085,���k��,3.9,��
2020/02/07,03:30,0.182,0.163,0.276,0.257,0.253,0.140,0.086,��,4.5,��
2020/02/07,03:40,0.182,0.162,0.278,0.257,0.253,0.139,0.086,���k��,3.9,��
2020/02/07,03:50,0.182,0.163,0.276,0.257,0.255,0.140,0.086,��,4.1,��
2020/02/07,04:00,0.182,0.163,0.277,0.257,0.254,0.140,0.085,���k��,4.2,��
2020/02/07,04:10,0.181,0.162,0.277,0.257,0.253,0.140,0.087,���k��,4.7,��
2020/02/07,04:20,0.180,0.163,0.276,0.256,0.253,0.139,0.086,��,4.4,��
2020/02/07,04:30,0.181,0.163,0.276,0.256,0.253,0.139,0.086,���k��,4.6,��
2020/02/07,04:40,0.183,0.163,0.277,0.255,0.253,0.139,0.086,���k��,4.5,��
2020/02/07,04:50,0.182,0.162,0.276,0.257,0.253,0.140,0.085,��,4.4,��
2020/02/07,05:00,0.181,0.163,0.276,0.258,0.252,0.138,0.086,���k��,5.5,��
2020/02/07,05:10,0.182,0.162,0.276,0.255,0.254,0.139,0.086,���k��,4.4,��
2020/02/07,05:20,0.181,0.162,0.276,0.257,0.253,0.139,0.086,��,2.8,��
2020/02/07,05:30,0.181,0.163,0.276,0.255,0.253,0.139,0.086,���k��,2.1,��
2020/02/07,05:40,0.181,0.162,0.278,0.256,0.252,0.139,0.087,�k��,1.4,��
2020/02/07,05:50,0.180,0.163,0.277,0.257,0.253,0.138,0.086,���쐼,1.4,��
2020/02/07,06:00,0.182,0.162,0.278,0.256,0.253,0.139,0.086,���쐼,1.8,��
2020/02/07,06:10,0.182,0.162,0.277,0.256,0.253,0.140,0.086,���쐼,3.0,��
2020/02/07,06:20,0.182,0.163,0.276,0.257,0.253,0.140,0.087,���쐼,3.0,��
2020/02/07,06:30,0.181,0.163,0.276,0.255,0.254,0.140,0.086,��,3.8,��
2020/02/07,06:40,0.181,0.163,0.276,0.257,0.255,0.140,0.086,��,4.8,��
2020/02/07,06:50,0.181,0.162,0.278,0.257,0.253,0.140,0.086,��,5.3,��
2020/02/07,07:00,0.182,0.163,0.277,0.256,0.253,0.140,0.086,���k��,4.5,��
2020/02/07,07:10,0.181,0.162,0.277,0.256,0.253,0.138,0.085,���k��,3.8,��
2020/02/07,07:20,0.182,0.163,0.277,0.256,0.253,0.140,0.086,��,1.6,��
2020/02/07,07:30,0.181,0.163,0.276,0.256,0.254,0.139,0.086,��,1.9,��
2020/02/07,07:40,0.181,0.163,0.277,0.256,0.252,0.139,0.086,��,3.1,��
2020/02/07,07:50,0.181,0.163,0.276,0.256,0.253,0.140,0.086,���쐼,3.7,��
2020/02/07,08:00,0.180,0.163,0.277,0.256,0.253,0.140,0.086,���쐼,3.2,��
2020/02/07,08:10,0.180,0.162,0.275,0.255,0.253,0.139,0.086,��,4.6,��
2020/02/07,08:20,0.180,0.161,0.277,0.255,0.254,0.139,0.086,��,4.2,��
2020/02/07,08:30,0.181,0.162,0.276,0.256,0.253,0.139,0.085,��,4.5,��
2020/02/07,08:40,0.181,0.162,0.277,0.256,0.252,0.139,0.085,��,3.7,��
2020/02/07,08:50,0.181,0.163,0.276,0.256,0.253,0.140,0.085,��,3.4,��
2020/02/07,09:00,0.181,0.164,0.275,0.255,0.253,0.140,0.085,��,4.6,��
2020/02/07,09:10,0.181,0.163,0.276,0.256,0.254,0.139,0.086,��,5.1,��
2020/02/07,09:20,0.181,0.162,0.275,0.256,0.253,0.139,0.086,��,2.7,��
2020/02/07,09:30,0.180,0.162,0.276,0.255,0.254,0.139,0.086,���k��,2.5,��
2020/02/07,09:40,0.181,0.162,0.278,0.254,0.253,0.138,0.086,��,2.9,��
2020/02/07,09:50,0.181,0.161,0.276,0.257,0.252,0.140,0.085,��,3.9,��
2020/02/07,10:00,0.181,0.162,0.277,0.256,0.253,0.140,0.085,��,3.2,��
2020/02/07,10:10,0.181,0.162,0.275,0.255,0.252,0.139,0.086,���k��,3.1,��
2020/02/07,10:20,0.181,0.162,0.276,0.256,0.253,0.139,0.086,�k�k��,1.4,��
2020/02/07,10:30,0.180,0.163,0.275,0.257,0.252,0.139,0.086,��,8.6,��
2020/02/07,10:40,0.180,0.162,0.275,0.257,0.252,0.140,0.085,���k��,6.1,��
2020/02/07,10:50,0.181,0.161,0.276,0.256,0.254,0.139,0.085,��,5.6,��
2020/02/07,11:00,0.180,0.162,0.276,0.257,0.252,0.140,0.086,��,6.6,��
2020/02/07,11:10,0.181,0.162,0.276,0.256,0.254,0.139,0.086,���쐼,7.4,��
2020/02/07,11:20,0.181,0.163,0.277,0.255,0.252,0.139,0.086,���쐼,6.8,��
2020/02/07,11:30,0.180,0.162,0.276,0.256,0.253,0.138,0.085,���쐼,6.5,��
2020/02/07,11:40,0.181,0.163,0.273,0.255,0.254,0.140,0.086,���쐼,5.9,��
2020/02/07,11:50,0.181,0.162,0.276,0.258,0.253,0.140,0.086,���쐼,6.5,��
2020/02/07,12:00,0.180,0.162,0.275,0.256,0.253,0.140,0.085,��,7.6,��
2020/02/07,12:10,0.179,0.162,0.275,0.256,0.253,0.140,0.086,��,7.5,��
2020/02/07,12:20,0.181,0.162,0.277,0.255,0.254,0.140,0.086,��,8.2,��
2020/02/07,12:30,0.182,0.162,0.274,0.255,0.253,0.139,0.086,��,6.4,��
2020/02/07,12:40,0.180,0.163,0.274,0.257,0.254,0.139,0.086,��,5.3,��
2020/02/07,12:50,0.181,0.162,0.276,0.254,0.253,0.139,0.085,���k��,4.8,��
2020/02/07,13:00,0.181,0.161,0.273,0.257,0.253,0.140,0.085,���k��,3.1,��
2020/02/07,13:10,0.181,0.162,0.275,0.255,0.254,0.139,0.085,���쐼,5.0,��
2020/02/07,13:20,0.180,0.163,0.275,0.256,0.252,0.139,0.086,��,4.1,��
2020/02/07,13:30,0.180,0.163,0.275,0.255,0.254,0.140,0.086,��,3.8,��
2020/02/07,13:40,0.181,0.163,0.276,0.256,0.252,0.140,0.085,���쐼,4.4,��
2020/02/07,13:50,0.181,0.163,0.274,0.255,0.255,0.139,0.086,���쐼,3.0,��
2020/02/07,14:00,0.181,0.163,0.278,0.257,0.252,0.139,0.085,��,4.8,��
2020/02/07,14:10,0.180,0.162,0.274,0.256,0.254,0.139,0.086,���쐼,2.9,��
2020/02/07,14:20,0.181,0.163,0.276,0.256,0.253,0.140,0.086,���k��,3.1,��
2020/02/07,14:30,0.179,0.163,0.278,0.256,0.254,0.140,0.086,���k��,5.3,��
2020/02/07,14:40,0.180,0.163,0.276,0.256,0.255,0.140,0.087,���k��,5.7,��
2020/02/07,14:50,0.182,0.163,0.276,0.258,0.254,0.138,0.086,��,4.1,��
2020/02/07,15:00,0.181,0.163,0.278,0.258,0.254,0.139,0.086,���쐼,2.0,��
2020/02/07,15:10,0.182,0.162,0.277,0.257,0.254,0.139,0.087,��쓌,1.4,��
2020/02/07,15:20,0.182,0.163,0.277,0.259,0.255,0.139,0.086,���쐼,2.2,��
2020/02/07,15:30,0.182,0.162,0.277,0.257,0.254,0.139,0.086,��쓌,2.3,��
2020/02/07,15:40,0.181,0.163,0.277,0.259,0.254,0.141,0.086,���k��,2.1,��
2020/02/07,15:50,0.183,0.164,0.278,0.257,0.254,0.141,0.086,�쓌,3.0,��
2020/02/07,16:00,0.182,0.163,0.276,0.258,0.253,0.139,0.086,��쓌,5.3,��
2020/02/07,16:10,0.182,0.163,0.277,0.258,0.256,0.140,0.086,��쓌,5.4,��
2020/02/07,16:20,0.183,0.163,0.278,0.257,0.254,0.142,0.087,��,5.2,��
2020/02/07,16:30,0.182,0.162,0.277,0.258,0.255,0.140,0.087,��쓌,3.3,��
2020/02/07,16:40,0.181,0.163,0.277,0.258,0.254,0.140,0.087,��쐼,2.3,��
2020/02/07,16:50,0.182,0.165,0.277,0.258,0.254,0.141,0.086,���쐼,1.7,��
2020/02/07,17:00,0.182,0.163,0.277,0.257,0.254,0.141,0.086,��쐼,1.5,��
2020/02/07,17:10,0.182,0.164,0.277,0.257,0.254,0.140,0.086,��쐼,1.8,��
2020/02/07,17:20,0.181,0.163,0.277,0.257,0.254,0.140,0.086,��쐼,4.2,��
2020/02/07,17:30,0.181,0.164,0.276,0.258,0.253,0.140,0.086,��쐼,4.0,��
2020/02/07,17:40,0.182,0.164,0.277,0.257,0.254,0.140,0.086,��쐼,4.0,��
2020/02/07,17:50,0.182,0.163,0.277,0.257,0.254,0.139,0.086,��쐼,4.8,��
2020/02/07,18:00,0.181,0.162,0.277,0.257,0.254,0.141,0.086,��쐼,3.7,��
2020/02/07,18:10,0.183,0.164,0.277,0.258,0.255,0.140,0.087,��쐼,3.1,��
2020/02/07,18:20,0.181,0.164,0.278,0.258,0.255,0.140,0.086,�쐼,2.6,��
2020/02/07,18:30,0.182,0.163,0.278,0.258,0.254,0.141,0.086,���쐼,2.6,��
2020/02/07,18:40,0.183,0.164,0.277,0.259,0.254,0.140,0.086,���쐼,2.7,��
2020/02/07,18:50,0.181,0.164,0.277,0.258,0.254,0.141,0.086,���쐼,3.0,��
2020/02/07,19:00,0.182,0.163,0.278,0.258,0.253,0.141,0.087,��,2.7,��
2020/02/07,19:10,0.182,0.163,0.277,0.258,0.254,0.141,0.086,��,2.9,��
2020/02/07,19:20,0.182,0.164,0.278,0.258,0.254,0.141,0.087,��,3.4,��
2020/02/07,19:30,0.183,0.164,0.277,0.258,0.254,0.141,0.087,���쐼,4.0,��
2020/02/07,19:40,0.182,0.165,0.277,0.258,0.255,0.141,0.086,��,4.0,��
2020/02/07,19:50,0.183,0.164,0.278,0.258,0.254,0.140,0.086,��,4.8,��
2020/02/07,20:00,0.181,0.164,0.278,0.258,0.254,0.140,0.087,��,5.6,��
2020/02/07,20:10,0.182,0.163,0.279,0.259,0.254,0.140,0.086,��,4.3,��
2020/02/07,20:20,0.182,0.163,0.278,0.257,0.255,0.140,0.086,��,4.3,��
2020/02/07,20:30,0.182,0.164,0.277,0.258,0.254,0.141,0.086,���쐼,3.9,��
2020/02/07,20:40,0.183,0.164,0.277,0.258,0.254,0.141,0.086,���쐼,4.6,��
2020/02/07,20:50,0.182,0.164,0.276,0.257,0.254,0.140,0.086,���쐼,4.1,��
2020/02/07,21:00,0.183,0.165,0.277,0.258,0.255,0.142,0.087,���쐼,4.1,��
2020/02/07,21:10,0.182,0.162,0.278,0.259,0.253,0.141,0.086,���쐼,4.1,��
2020/02/07,21:20,0.181,0.164,0.279,0.258,0.255,0.141,0.086,�쐼,4.5,��
2020/02/07,21:30,0.183,0.164,0.278,0.258,0.256,0.140,0.086,���쐼,4.9,��
2020/02/07,21:40,0.182,0.164,0.278,0.258,0.256,0.141,0.087,�쐼,5.8,��
2020/02/07,21:50,0.183,0.164,0.277,0.259,0.255,0.141,0.087,�쐼,7.1,��
2020/02/07,22:00,0.183,0.164,0.277,0.258,0.254,0.140,0.086,�쐼,7.0,��
2020/02/07,22:10,0.182,0.164,0.279,0.258,0.254,0.140,0.087,��쐼,6.1,��
2020/02/07,22:20,0.182,0.164,0.279,0.258,0.254,0.141,0.087,�쐼,5.0,��
2020/02/07,22:30,0.182,0.164,0.278,0.259,0.255,0.141,0.087,�쐼,5.5,��
2020/02/07,22:40,0.183,0.164,0.277,0.259,0.255,0.141,0.087,�쐼,5.1,��
2020/02/07,22:50,0.183,0.163,0.277,0.257,0.254,0.140,0.087,�쐼,5.0,��
2020/02/07,23:00,0.182,0.163,0.276,0.258,0.255,0.141,0.086,�쐼,5.2,��
2020/02/07,23:10,0.183,0.164,0.277,0.258,0.254,0.142,0.087,�쐼,4.5,��
2020/02/07,23:20,0.182,0.165,0.278,0.258,0.254,0.141,0.087,�쐼,6.1,��
2020/02/07,23:30,0.183,0.163,0.277,0.259,0.255,0.141,0.088,�쐼,7.3,��
2020/02/07,23:40,0.182,0.165,0.277,0.259,0.254,0.141,0.087,�쐼,6.3,��
2020/02/07,23:50,0.183,0.164,0.278,0.258,0.255,0.141,0.087,�쐼,5.6,��
